CZ-3B DEB, 42464

Orbit data source: Space-Track

CZ-3B DEB, 42464 is space debris in HEO originally from a launch on Sat, 04 Sep 2010 UTC launched from the Xichang Space Center, China (XSC). Debris objects in space refer to the collection of defunct objects orbiting the Earth. Examples of debris include non-operational satellites, rocket bodies, and fragments generated from explosions, collisions, or faulty payload assembly.

Loading next visibility...
Identifier
42464, 2010-042AF
Orbit
HEO
Country
Flag of CNCN / PRC
Related business
Manufacturer
CALT
Mission
Spacecraft
Bus & Motor
Unknown
Mass
Unknown
Launch date (UTC)
2010-09-04 (16 years ago)
Launch vehicle
Unknown
Launch site
Xichang Space Center, China (XSC)
Object type
Payload
Rocket body
Debris
Shape & HBR
Unknown shape, 0.3 m
Radar Cross Section
Medium (>0.1 m² and <1 m²)

Expand to show TLE details & history
Last TLE update: 3 days ago

TLE from 3 days ago
0 CZ-3B DEB
1 42464U 10042AF  26124.74240776 -.00000062  00000-0  00000-0 0  9998
2 42464  24.4846 285.0128 7381342  22.0933 357.6267  1.82473987 81737
Epoch: 2026-05-04T17:49Z
TLE epoch observation values (Epoch: 2026-05-04T17:49:04.030Z)
Latitude
0.0002°
Longitude
155.09143°
Altitude
1,303.153 km
Speed
9.47 km/s
True Right ascension
18h 59m 56s
True Declination
0° 00' 01"
Sunlit
Object was in daylight at epoch
Visualization orbit readout
Latitude
Unknown
Longitude
Unknown
Altitude
Unknown
Speed
Unknown
Apparent Right ascension
Unknown
Apparent Declination
Unknown
Sunlit
N/A
Visualization observer readout
Local Sidereal Time
06:27:26
Azimuth
Unknown
Elevation
Unknown
Doppler factor
Unknown
Orbital elements
Apogee altitude
42,796.658 km
Perigee altitude
1,030.495 km
Semi-major axis
28,291.714 km
Eccentricity
0.73813
Inclination
24.4846°
RAAN
285.0128°
Arg. of periapsis
22.0933°
True anomaly
337.17505°
Mean anomaly
357.6267°
Eccentric anomaly
351.03978°
Mean motion
0.45609 °/min
Orbital period
789.31 mins
BSTAR
0
Loading maneuver chart data...
Computing Atmospheric mass density...
Loading historical data...
Loading historical data...
Loading historical data...
Loading historical data...
Loading historical data...
Loading historical data...
Loading historical data...

Documentation

Showing up to 5 results
|